Presure
206 194 176 216 217 215 206 205 215 224 215 151 140 156 124 119 121 123 149 117 117 121 119 120 116 111 117 120 116 111 107 79 118 116 123 110 102 114 121 103 106 113 113 120 113 117 118 126 111
201 191 165 177 176 208 188 206 215 217 213 223 223 222 229 228 238 205 131 116 106 110 113 115 118 123 124 116 108 110 117 109 102 94 107 109 111 115 115 104 119 122 116 128 129 127 89 118 107
207 194 195 180 196 158 194 213 194 206 203 159 158 173 220 203 171 148 202 225 206 158 114 158 127 134 112 112 115 115 105 113 115 112 94 89 111 112 116 112 118 123 119 106 118 108 132 114 120
189 198 150 186 142 191 201 198 196 210 215 192 198 216 199 215 202 173 126 149 165 102 166 62 104 179 113 116 95 115 106 119 113 107 90 115 118 115 116 124 110 122 119 126 116 131 129 129 133
201 189 183 187 176 176 198 200 208 208 199 202 202 200 209 160 133 237 237 232 235 159 134 135 118 161 163 131 135 102 98 104 126 108 122 126 149 142 108 118 119 120 132 129 129 113 140 141 139
197 132 131 160 180 187 164 193 204 204 199 180 178 201 204 208 248 232 230 224 94 184 229 238 226 191 109 133 223 144 164 80 128 147 262 160 172 228 114 195 190 146 194 184 166 144 127 145 165
191 187 189 185 150 172 202 172 199 196 157 175 207 209 232 231 210 221 197 210 218 224 148 223 93 222 195 257 265 218 140 222 149 187 118 187 141 158 200 118 171 231 231 215 229 121 132 225 205
199 196 191 182 191 188 186 197 199 193 212 213 234 234 223 225 211 73 168 81 234 87 218 112 213 237 217 274 81 113 221 96 110 130 124 201 130 109 124 90 216 135 213 156 158 129 196 82 207
199 193 133 190 196 197 204 205 211 204 228 193 224 207 224 230 132 217 186 130 246 261 184 224 232 212 239 253 248 176 209 217 206 206 206 166 167 212 126 226 126 124 174 156 149 187 218 144 110
202 195 201 214 192 197 201 220 231 222 215 221 231 190 221 168 171 150 183 276 214 286 267 269 261 243 254 247 243 148 182 205 205 214 216 204 204 218 200 195 156 216 193 216 193 181 133 199 214
229 213 215 151 212 225 225 223 219 213 209 214 218 223 216 226 217 244 289 291 282 282 266 263 248 249 238 239 237 228 190 231 218 201 208 197 202 198 199 192 214 206 203 222 221 207 213 204 209
222 211 218 163 211 209 205 208 199 171 205 208 198 223 217 109 193 258 347 280 274 272 253 248 241 233 240 229 224 228 209 243 231 228 230 211 205 203 195 198 201 226 213 203 112 205 92 213 91
210 201 201 200 202 176 207 205 211 221 202 212 220 214 213 222 254 260 284 263 272 261 258 245 230 228 226 222 218 217 217 230 221 214 222 203 200 205 205 202 201 199 202 215 192 205 228 233 93
210 203 192 204 200 194 198 202 213 205 198 225 209 205 245 246 266 369 289 267 255 255 225 237 232 226 219 212 215 228 236 231 227 252 246 237 205 200 202 205 202 193 203 197 205 170 192 199 201
192 212 202 204 205 204 204 212 219 203 218 216 224 228 204 268 320 360 260 261 228 255 228 225 231 225 216 213 212 226 220 227 247 244 209 267 261 202 205 196 202 207 196 196 213 206 209 196 187
198 204 199 209 214 213 210 211 211 206 221 205 224 199 254 329 359 328 218 244 220 243 237 235 226 217 199 228 226 218 216 230 241 217 218 262 235 225 207 204 199 194 192 198 187 203 216 192 200
206 195 203 201 201 203 204 220 129 195 209 229 227 232 275 350 359 316 257 234 226 234 181 231 215 209 205 224 213 216 207 252 227 213 241 262 238 254 213 208 200 196 200 191 188 192 195 199 183
195 203 200 194 200 210 220 224 219 209 228 210 238 273 330 393 320 314 247 230 235 230 231 214 205 153 211 203 212 215 225 237 227 235 242 254 255 242 210 205 202 184 192 201 190 180 180 184 190
211 207 199 195 194 195 228 184 198 204 217 228 256 349 353 337 311 286 246 228 233 233 215 206 201 202 202 202 206 231 219 312 214 240 239 238 246 237 239 209 194 184 194 185 180 183 196 204 183
214 212 203 204 210 224 221 177 219 126 173 245 278 345 331 318 293 264 241 241 234 221 209 195 207 198 197 214 203 202 222 278 241 224 230 228 225 237 225 215 203 199 192 194 186 183 190 180 174
215 215 212 205 214 225 226 187 205 189 233 248 333 342 321 269 245 249 237 235 224 205 208 205 198 209 208 202 225 220 215 278 215 215 222 237 224 212 227 225 216 209 199 193 202 184 193 184 175
215 214 216 217 193 228 228 226 211 208 235 280 321 322 259 260 252 240 233 221 206 209 202 190 210 199 202 204 202 212 232 260 225 214 221 225 229 225 223 216 217 206 206 199 192 193 191 193 177
217 220 207 231 214 197 213 207 201 227 233 295 312 289 261 234 245 233 222 203 209 194 207 192 194 203 203 195 203 214 234 250 237 211 205 207 215 207 195 221 210 195 202 202 194 189 194 191 192
211 211 221 219 234 227 213 218 228 231 286 298 305 238 243 249 240 220 206 202 182 200 204 203 204 201 194 198 193 206 225 236 239 232 214 205 208 219 215 198 203 218 214 212 205 203 198 188 193
207 214 224 228 226 197 214 217 241 228 283 291 297 231 239 231 224 206 196 203 193 201 189 190 193 187 199 200 199 209 201 226 215 213 215 193 195 193 198 204 201 196 200 197 196 203 214 191 205
222 227 225 235 201 226 224 232 240 277 280 281 243 222 234 219 219 204 206 191 202 207 180 203 182 183 192 179 190 193 207 204 210 207 204 214 193 192 183 182 181 185 188 189 186 186 184 172 180
223 224 228 227 232 231 232 235 251 256 281 285 219 211 229 220 202 187 205 182 201 199 163 206 181 173 192 199 190 197 185 202 197 224 209 198 202 207 214 197 196 209 219 237 235 228 236 233 230
230 229 228 232 232 248 251 209 287 243 242 232 218 217 225 219 203 199 193 190 201 189 197 174 198 193 189 194 194 188 180 193 192 199 202 209 197 197 196 192 194 195 192 195 206 210 214 212 211
226 234 245 250 251 261 254 271 273 236 219 225 224 219 219 212 203 200 198 183 184 201 192 178 189 189 187 190 190 187 188 180 183 191 192 200 198 197 202 215 222 179 208 209 203 199 196 188 193
241 242 245 245 237 245 281 194 157 241 216 253 227 226 201 212 199 199 189 194 192 188 187 189 190 191 189 185 182 183 191 193 194 180 186 183 184 194 198 201 203 200 201 197 202 213 207 202 194
Wind_Speed
74 78 84 71 70 69 75 79 69 66 69 74 69 78 64 58 59 58 76 57 61 61 59 61 58 53 56 57 56 50 46 11 58 55 60 50 41 52 57 40 40 48 49 57 52 56 57 63 49
76 80 73 74 73 71 80 73 68 69 68 70 67 67 66 67 69 65 71 58 55 55 56 59 60 64 63 53 46 51 56 52 48 39 52 51 48 58 55 42 54 57 53 64 65 63 41 53 37
70 81 75 77 74 80 76 73 72 71 72 79 78 76 65 75 75 80 66 72 67 64 58 78 70 58 53 47 52 53 46 56 58 55 42 26 60 58 56 52 57 63 60 37 58 32 70 46 55
84 76 70 78 79 78 78 75 74 74 71 67 70 69 72 74 76 50 67 77 79 53 75 17 50 56 50 52 35 51 50 64 54 52 39 65 65 61 61 68 41 64 63 71 58 73 69 70 72
76 78 76 77 75 81 81 77 78 72 68 68 68 71 72 74 67 65 64 67 68 74 60 61 60 77 80 75 59 50 56 53 64 51 69 71 71 65 52 61 58 64 74 72 72 50 79 79 77
78 63 63 76 83 79 84 83 78 75 73 72 73 71 72 73 59 61 59 65 30 65 69 62 64 64 50 62 57 76 27 21 48 33 24 79 63 23 50 54 48 78 77 65 93 79 68 79 91
82 83 82 84 80 90 91 77 81 77 72 78 80 71 64 61 69 59 70 63 75 75 66 69 44 51 52 46 34 48 76 36 74 27 61 46 51 79 79 62 35 35 36 47 50 59 73 46 54
83 84 83 86 85 91 91 84 85 83 81 80 66 60 59 60 64 26 55 30 83 38 73 42 56 56 50 35 12 39 39 26 47 70 72 59 76 42 70 33 55 75 55 49 36 69 72 19 39
86 83 69 86 89 93 96 90 89 82 71 49 61 63 58 63 43 69 67 28 76 64 47 49 50 49 45 36 37 44 47 47 54 55 56 74 71 62 76 43 71 67 59 51 66 47 43 73 57
92 87 88 85 91 94 89 84 75 70 71 61 56 49 61 53 47 43 58 62 54 51 51 44 43 40 34 37 39 29 33 51 53 52 55 61 62 55 68 70 71 47 72 44 45 60 56 42 38
67 69 78 73 81 70 67 68 69 64 62 58 58 69 65 60 64 66 64 57 52 42 47 42 38 31 36 37 40 44 47 47 57 60 59 64 65 67 67 69 58 56 61 38 40 48 30 48 41
61 64 60 77 69 67 69 70 71 51 61 66 58 63 53 36 66 65 49 52 48 41 48 43 32 31 33 36 41 40 50 40 49 54 56 61 65 68 69 68 64 41 49 55 51 35 22 35 31
64 72 71 72 72 77 69 69 72 64 67 74 61 51 52 59 61 60 37 49 44 43 43 39 31 32 35 35 39 38 40 38 46 55 55 60 64 68 71 66 61 61 54 51 47 48 36 33 32
61 65 77 70 71 73 71 69 59 71 67 72 59 53 65 62 66 38 44 46 44 48 39 37 30 34 34 38 35 34 30 34 41 36 37 55 68 69 68 69 60 51 59 48 52 44 39 44 39
79 63 72 77 77 74 73 67 69 69 74 77 61 58 56 72 57 38 36 43 38 44 37 33 31 33 34 35 35 33 35 36 30 35 54 41 49 70 70 61 63 61 56 49 55 52 51 34 31
81 73 75 72 71 71 76 69 74 64 73 57 60 47 66 57 34 52 32 40 31 41 35 35 31 32 45 32 30 32 34 33 30 40 43 39 49 65 70 69 63 57 54 54 44 46 52 38 37
78 74 75 76 76 72 61 67 43 63 60 59 60 60 71 37 39 54 42 38 37 36 45 32 32 34 36 28 33 30 39 29 31 35 34 35 43 49 66 72 63 59 63 53 43 41 38 38 38
69 79 79 76 78 75 74 66 68 72 68 56 66 73 44 27 52 52 40 36 40 33 32 32 36 48 30 36 31 28 26 29 32 30 29 28 38 46 67 60 60 47 59 60 52 40 40 41 41
88 84 74 71 69 50 70 37 54 60 50 60 69 35 29 43 55 47 40 35 40 35 34 37 36 34 34 36 31 21 25 19 33 26 24 30 35 44 46 71 62 51 66 54 49 51 60 55 40
88 85 80 77 73 68 70 38 67 38 43 64 60 26 37 51 50 48 42 42 39 33 36 42 31 35 34 24 30 32 20 16 26 26 27 30 28 34 40 61 58 72 66 69 62 51 55 45 42
80 79 80 74 73 70 66 46 53 54 56 53 23 27 44 39 40 47 40 42 37 35 37 33 35 28 25 29 17 19 19 17 28 26 28 25 30 32 29 33 42 54 66 62 60 62 60 50 45
79 79 75 70 43 64 56 52 58 49 53 53 25 33 37 46 46 41 40 41 39 38 38 40 29 29 25 25 21 20 14 14 27 28 29 32 26 27 33 35 38 48 53 62 63 59 57 55 47
77 75 68 63 64 36 51 35 44 52 54 38 25 40 46 32 43 42 45 41 40 39 35 38 34 23 22 27 18 17 9 11 29 29 24 25 30 31 34 39 44 49 53 57 58 55 58 54 55
75 73 72 65 65 60 51 42 51 58 42 35 28 34 35 42 42 45 43 40 40 38 35 35 26 23 26 23 23 15 8 10 20 25 32 28 29 31 31 36 38 40 44 49 52 57 59 50 56
66 75 70 67 59 55 47 42 49 48 43 32 31 36 37 38 46 45 42 43 44 43 41 29 32 33 22 21 18 13 17 9 15 19 34 28 29 26 27 30 32 34 37 39 40 46 54 49 57
77 75 70 68 46 61 56 54 48 41 42 34 43 40 39 46 47 48 47 44 47 43 36 37 38 40 29 36 24 19 13 15 16 19 25 37 35 39 34 33 32 36 41 41 40 41 42 41 44
75 71 65 54 65 60 55 48 41 40 40 33 50 49 44 48 51 45 49 37 45 41 35 39 43 40 32 25 26 16 23 14 17 10 22 25 31 38 44 46 45 38 38 36 41 44 40 39 39
75 72 60 61 56 60 44 37 39 48 44 52 52 50 48 49 51 49 44 38 42 37 42 40 39 39 36 27 27 27 29 18 19 17 18 20 25 30 33 35 37 37 36 36 35 35 34 36 38
72 73 72 68 59 53 33 40 40 48 51 56 55 53 49 53 53 50 45 38 39 44 46 43 45 41 37 31 29 31 28 32 26 21 20 19 23 25 26 26 27 36 39 41 41 39 38 39 40
78 74 67 57 41 34 39 37 34 55 57 51 57 53 52 55 51 49 46 47 46 49 47 47 47 45 39 36 37 35 31 29 28 32 28 29 27 24 24 24 25 30 32 35 33 37 40 42 42
Wind_Direction
265 266 265 266 267 270 270 270 275 273 273 259 262 262 261 258 256 256 261 251 253 253 255 256 256 256 256 254 257 262 265 282 263 266 265 273 283 272 266 267 267 266 269 267 271 273 275 272 281
267 266 265 266 266 271 269 275 274 275 275 276 277 278 280 280 280 273 254 248 254 256 256 258 259 258 259 256 257 260 260 266 273 286 272 278 277 271 274 285 274 274 277 271 269 270 279 281 289
267 266 268 268 272 267 274 275 270 272 271 263 264 268 282 275 265 261 270 273 267 263 257 260 256 260 257 255 256 259 264 263 263 267 288 300 273 277 280 282 280 278 280 288 283 280 276 287 283
265 267 266 271 259 273 274 273 271 275 277 273 272 281 273 281 272 279 256 258 261 259 258 240 264 269 260 258 257 257 255 260 266 267 291 268 271 276 275 275 268 276 278 276 270 274 281 283 281
267 267 267 272 270 270 276 274 274 275 273 275 277 276 280 265 263 281 278 278 276 258 266 267 262 261 263 262 260 261 260 256 264 271 265 268 268 269 279 273 276 276 271 273 275 286 275 276 279
263 258 258 266 267 274 267 269 275 277 276 271 271 278 280 280 285 278 278 275 257 265 270 274 269 267 257 256 265 263 271 300 270 281 238 260 259 288 271 259 264 266 260 259 265 272 280 276 271
265 266 268 270 265 268 271 270 274 273 265 268 284 280 281 276 276 272 268 270 267 268 261 270 258 279 268 264 258 253 264 232 258 243 268 243 261 261 260 272 261 238 231 247 243 283 279 262 263
263 264 266 268 269 268 269 273 274 273 279 281 279 280 277 278 272 246 266 249 274 260 270 269 276 277 270 260 274 270 234 285 268 262 263 243 263 278 269 267 246 264 251 270 267 277 263 266 264
264 266 261 267 265 268 271 273 274 277 281 275 279 277 286 289 252 278 268 264 273 273 261 262 266 267 271 254 244 248 243 227 241 241 242 264 256 238 264 235 268 271 258 263 269 260 254 269 273
263 266 266 262 266 268 270 272 276 277 279 283 290 278 287 278 282 272 278 279 259 260 257 254 257 260 253 249 243 256 248 238 242 231 226 240 242 232 251 258 265 249 264 248 254 268 274 264 266
265 261 261 266 262 266 271 274 276 279 280 284 287 282 281 285 280 290 287 272 262 251 248 248 253 250 250 246 243 234 239 225 228 241 236 244 241 246 253 262 248 258 259 237 250 265 240 274 279
267 267 266 266 265 270 271 274 272 277 279 281 270 279 277 267 270 290 279 268 258 239 250 248 246 246 245 239 238 242 233 235 232 232 228 230 243 244 254 256 262 234 250 266 270 244 275 261 274
261 265 265 264 264 267 271 273 277 282 277 276 281 282 275 279 293 284 252 263 247 242 245 241 242 241 244 240 239 251 240 241 239 235 234 235 246 246 247 253 256 263 266 254 272 266 236 236 278
261 259 267 263 265 266 270 274 279 276 273 281 281 275 294 291 288 263 251 254 246 246 248 242 235 239 240 242 245 247 252 244 243 245 245 232 236 246 252 253 257 261 265 265 265 262 272 271 274
268 257 260 263 264 267 269 273 276 277 284 284 287 291 279 293 282 225 244 242 248 237 241 242 232 235 238 242 245 245 241 244 256 245 240 229 226 243 245 256 254 252 265 266 255 263 256 275 256
261 261 262 264 267 267 269 273 276 282 281 284 288 274 298 288 253 218 250 238 249 234 232 229 230 234 243 245 248 246 244 253 252 240 238 230 230 228 241 247 253 258 262 265 261 271 263 265 272
251 264 257 263 264 265 272 272 276 272 284 289 288 291 295 264 225 219 227 233 238 227 240 220 226 231 238 245 244 246 247 268 252 245 235 229 228 218 237 242 248 256 257 259 260 265 271 262 260
261 253 254 260 265 267 269 272 274 277 284 279 294 296 279 234 210 208 223 231 225 220 214 220 229 251 240 245 248 252 262 263 248 235 235 226 210 217 231 240 243 256 258 254 259 256 261 266 262
245 250 257 265 266 270 267 241 269 277 283 293 296 272 218 206 207 208 219 230 215 212 209 222 234 235 241 246 251 265 266 276 246 228 224 227 215 221 219 231 243 251 252 259 260 263 267 265 256
248 251 256 260 265 268 270 253 275 265 264 290 297 246 212 203 200 210 216 213 206 201 216 233 224 237 243 253 246 253 261 242 220 237 229 232 229 213 227 231 237 241 248 253 257 255 259 250 239
249 251 255 259 265 265 265 272 268 254 285 293 255 226 202 201 198 208 212 203 196 205 214 217 229 226 238 251 275 260 253 212 237 243 235 221 225 232 213 219 223 234 245 253 252 254 256 255 246
248 251 254 257 257 262 270 270 270 275 286 288 254 213 208 206 207 203 203 195 202 203 216 231 215 230 238 249 256 264 263 212 221 241 234 238 216 218 206 214 219 229 233 240 250 255 259 260 244
249 251 257 255 261 252 266 234 260 282 284 266 237 204 205 202 206 197 194 202 199 219 209 227 224 219 230 245 258 259 264 210 205 238 245 250 246 232 247 218 229 236 240 246 250 255 256 262 265
251 254 254 259 257 262 263 271 282 282 264 252 232 212 216 213 203 188 192 200 226 208 208 213 200 212 229 237 246 247 241 199 197 212 229 243 247 245 229 237 240 239 243 248 250 252 258 263 266
254 253 254 255 259 237 263 272 280 266 256 239 223 204 212 198 193 191 201 198 215 208 225 221 216 232 212 223 234 229 238 211 220 200 213 242 255 255 261 263 255 251 253 253 257 257 258 263 266
247 248 253 257 222 268 271 275 270 260 241 224 205 199 206 195 192 196 196 209 210 205 247 198 235 236 216 246 233 238 224 233 229 225 216 215 230 237 249 254 259 270 270 268 266 266 264 261 269
249 252 256 258 262 268 269 264 263 235 235 215 210 210 198 195 194 223 201 229 212 215 236 197 244 258 217 209 227 218 247 223 232 211 228 229 228 229 232 241 245 249 249 244 244 248 249 252 255
248 250 254 259 263 267 266 258 242 223 211 204 213 207 198 195 196 208 219 215 212 219 207 246 210 216 222 206 213 224 241 226 227 224 231 242 241 244 246 252 255 254 258 259 255 252 252 254 256
248 252 254 259 262 269 259 258 219 219 206 208 208 208 199 194 197 206 213 221 221 209 214 240 223 223 224 215 212 221 222 237 234 221 225 225 233 238 244 247 250 261 258 256 261 265 266 271 271
245 249 252 253 244 250 266 238 246 209 209 202 205 206 215 197 200 203 214 214 214 222 229 224 225 224 219 220 230 231 220 221 222 236 228 233 238 233 240 246 249 253 256 262 265 260 262 267 274